Find Starlink 5021

NORAD ID: 53902 Int'l Des: 2022-119 Owner: SPXS Country: US Constellation: starlink operational
LEOCIRCULAR

Live Position

Loading 3D Globe...

About Starlink 5021

Description loading...

Upcoming Passes

Passes for default location (London). Set your location on the main map for personalized predictions.

Altitude History

Loading altitude history...

Two-Line Element Set

1 53902U 22119S 26120.98037292 .00000995 00000-0 80590-4 0 9994
2 53902 53.2191 39.1311 0001688 93.3439 266.7746 15.08837262200286
Epoch: Apr 30, 2026 • Age: 18 hours

Current Status

Altitude 540.6 km
Velocity 7.60 km/s
Sub-Earth Point 28.12°N, 58.02°W
Launch Date Sep 24, 2022
Age 3.5 years
Type internet

Technical Details

Classification Payload
Mass 305.00 kg
Dry Mass 290.00 kg
Total Mass 305.00 kg
Length 0.20 m
Diameter 2.80 m
Span 9.00 m
Shape Box + pan
Manufacturer SPXS
Bus Type Starlink
Phase Status In Orbit
Owner/State SPXS/US

Most Searched